Wind_Speed
22 22 26 30 28 27 26 25 26 26 27 28 29 30 30 29 29 29 30 29 28 27 26 26 25 25 29 29 27 25 23 22 22 22 20 18 18 17 17 16 16 17 17 18 19 19 18 18 18 17 17 17 16 17 17 17 17 17 20 21 18 16 17 16 16 17 18 19 20 20 19 19 18 18 18 19 19 18 17 17 17 17 19 18 18
24 24 26 29 29 27 27 26 26 27 27 28 29 30 30 29 29 29 29 29 28 27 26 26 25 27 29 27 25 24 23 23 23 22 20 18 18 17 16 16 17 17 18 19 19 19 19 19 19 19 19 18 17 17 18 18 18 19 20 19 16 16 17 15 17 19 20 20 21 21 21 20 19 19 18 19 19 18 17 17 17 17 18 17 17
25 23 24 29 29 27 27 27 27 27 27 28 29 29 29 28 28 28 29 29 28 27 27 27 26 27 26 24 23 23 24 24 23 22 20 19 18 17 16 17 17 17 18 19 19 19 20 19 19 19 19 19 19 18 18 18 20 20 18 18 17 17 16 15 18 21 21 21 21 21 21 21 21 19 18 19 19 18 18 18 17 17 16 15 16
24 24 23 28 28 27 27 28 28 27 28 28 28 28 28 28 28 28 29 29 27 27 27 27 27 26 24 23 22 23 24 25 23 22 21 20 19 18 16 16 16 16 18 18 19 19 19 18 18 18 18 19 18 18 18 17 20 19 18 19 18 17 17 16 18 19 20 20 19 18 19 20 20 19 19 19 19 18 18 18 17 16 14 13 14
23 23 24 26 26 27 28 28 28 27 28 28 27 27 28 28 28 29 29 29 28 27 27 26 25 24 22 22 21 21 23 25 24 23 22 20 19 18 17 17 17 17 19 18 19 19 18 18 17 17 17 17 17 18 18 17 17 17 18 19 17 17 17 17 18 18 19 18 16 16 17 19 19 18 18 18 17 17 17 17 16 15 14 13 13
24 23 24 24 24 25 28 29 28 28 28 27 27 27 28 28 29 29 29 29 28 27 26 25 24 22 21 21 21 20 22 23 23 22 21 20 20 19 18 19 18 18 18 18 18 18 17 17 17 16 16 16 16 16 17 17 15 16 19 19 18 17 17 17 18 18 17 15 14 13 14 16 18 17 16 16 15 15 15 15 16 15 15 14 13
23 23 23 23 23 25 28 28 28 28 28 27 27 27 27 28 29 29 29 29 27 26 24 24 23 21 20 20 20 20 21 21 22 21 21 20 20 19 18 19 19 18 18 18 18 17 16 16 16 15 14 13 14 15 15 15 15 16 18 19 18 17 16 16 17 17 14 11 10 11 12 13 15 16 14 14 14 14 13 13 14 15 15 14 14
23 23 22 22 22 27 30 29 29 28 28 27 27 27 27 28 29 29 28 27 26 25 23 23 22 20 20 21 21 21 20 20 21 21 20 20 20 19 18 19 20 19 18 18 17 16 15 15 14 13 12 12 12 13 13 13 14 15 15 17 17 16 16 15 16 14 12 9 9 9 10 11 13 13 13 13 13 13 12 11 12 14 14 14 14
23 23 21 22 22 28 30 29 29 28 28 27 27 27 27 28 28 28 27 26 25 24 23 22 21 20 21 21 21 22 21 20 22 22 21 21 20 19 19 19 20 19 19 17 16 15 15 14 13 12 12 11 11 12 12 12 12 13 13 14 16 16 15 15 13 11 9 8 8 8 9 10 11 12 11 11 11 12 12 12 12 13 13 12 13
23 22 21 21 23 28 29 29 29 28 27 27 26 26 27 27 27 27 26 25 25 24 22 20 20 21 22 22 22 23 21 20 21 22 22 21 20 19 20 20 19 18 18 17 16 15 15 13 13 12 12 12 11 12 12 11 12 12 12 12 14 15 15 14 12 9 7 7 8 9 9 10 11 12 11 10 10 10 10 11 12 12 13 12 12
23 21 21 22 25 29 30 29 28 27 27 26 26 25 26 26 26 26 25 25 24 23 21 20 20 22 22 21 23 23 21 20 20 21 21 20 20 20 20 20 18 17 17 16 16 15 14 13 13 12 12 12 12 12 11 10 11 11 11 11 12 13 14 12 10 8 8 9 10 10 11 11 12 13 11 11 11 10 9 9 10 12 13 13 12
22 21 21 23 25 29 30 28 28 26 25 26 26 26 27 26 25 25 24 23 23 22 21 21 22 22 21 21 23 21 20 20 20 20 20 20 20 20 20 19 18 16 16 16 15 15 14 13 12 12 12 11 11 10 10 10 10 10 10 11 11 13 13 12 9 7 9 10 10 10 11 12 13 13 12 11 12 11 11 10 10 11 12 12 12
21 21 22 23 23 27 28 26 26 25 24 25 25 26 27 26 25 24 23 23 22 22 22 22 21 19 20 21 21 20 20 20 19 19 19 20 19 19 19 18 17 16 15 15 15 14 14 13 12 12 11 11 10 10 10 10 10 10 10 10 11 13 14 13 9 7 9 9 9 10 11 12 13 14 12 12 12 12 12 11 11 11 11 11 11
22 22 23 23 22 25 27 26 26 25 25 26 26 26 27 26 25 24 24 24 23 23 22 21 19 18 19 21 21 20 19 19 18 18 19 18 16 17 18 17 17 16 15 15 15 14 12 12 13 12 11 11 10 10 11 11 11 10 10 10 11 13 13 11 8 9 9 9 10 11 12 13 13 13 13 13 13 13 12 12 11 11 11 11 11
23 23 22 22 23 23 24 25 26 25 26 26 27 27 26 26 25 25 25 25 23 22 21 19 18 19 20 20 20 19 18 18 18 18 18 17 16 17 17 16 16 15 15 14 13 13 13 14 13 11 10 10 9 10 11 11 11 11 10 10 11 12 12 9 7 9 9 9 10 11 13 13 13 13 13 14 14 14 13 13 13 12 11 11 11
23 24 22 22 24 23 22 24 25 26 27 27 27 27 26 25 25 25 25 24 23 21 20 19 20 20 20 19 18 17 17 17 18 17 16 16 17 17 17 16 15 15 15 14 12 12 14 14 12 10 9 9 9 10 12 11 11 11 10 10 10 11 12 9 7 8 8 9 10 11 12 13 12 12 13 14 14 14 13 13 13 13 12 12 12
23 24 23 23 25 24 23 23 24 25 27 27 27 26 24 24 24 23 23 23 23 21 20 19 20 19 19 18 17 16 16 17 16 16 15 16 16 16 17 15 13 14 14 13 12 12 13 13 11 10 9 8 9 10 12 11 10 10 10 9 10 11 13 11 7 8 9 9 10 10 12 12 12 12 13 13 13 13 12 12 12 12 13 12 12
23 24 24 24 24 24 24 23 23 24 25 26 25 24 22 23 23 22 22 23 22 21 20 19 19 18 17 17 16 16 17 16 15 14 15 16 16 16 17 15 13 13 13 12 11 12 12 12 11 10 9 8 7 9 11 11 10 9 9 9 9 11 14 12 8 9 9 9 10 10 12 12 11 12 13 13 12 12 12 12 12 12 12 12 12
22 23 24 23 24 23 24 24 23 23 23 23 23 22 22 22 22 21 21 21 21 19 19 18 17 17 17 16 15 16 16 16 15 14 15 16 15 15 15 15 14 14 13 12 11 11 12 11 11 10 10 8 7 8 10 11 10 9 8 8 9 11 13 10 8 9 9 8 10 11 12 12 12 12 12 12 12 12 13 12 11 11 12 11 11
19 21 22 22 22 23 24 23 23 23 21 21 21 22 22 21 21 20 19 19 18 18 18 17 17 16 16 16 15 16 16 16 15 15 15 15 15 15 15 14 13 13 13 13 12 11 11 11 10 10 10 9 8 7 9 10 10 9 8 8 9 10 10 8 8 9 8 9 10 11 12 12 12 11 11 11 12 12 13 12 11 11 11 11 11
18 19 20 21 21 22 23 22 22 21 19 20 21 21 21 20 19 19 17 17 16 17 18 17 16 15 16 16 16 17 16 15 15 15 15 14 14 15 14 13 12 12 13 13 12 11 11 10 9 9 9 10 9 8 8 9 9 9 9 8 9 8 6 7 8 8 9 9 10 11 12 11 11 10 10 11 11 11 11 11 11 11 11 11 11
16 17 18 20 22 22 21 21 21 20 18 19 20 20 19 18 18 17 15 15 16 16 16 15 14 14 16 16 16 16 14 14 16 15 14 14 13 13 13 13 12 12 12 12 12 12 12 11 10 9 8 10 10 9 8 7 8 9 9 9 7 5 6 7 7 8 8 9 9 11 11 10 10 10 10 11 11 10 9 9 11 11 11 10 10
14 16 16 16 20 21 20 20 20 20 19 17 18 20 18 17 16 15 15 14 15 15 14 14 13 14 14 13 13 13 12 14 17 17 14 13 12 12 12 12 11 11 11 11 12 12 12 11 10 9 9 9 9 9 8 7 7 8 9 8 5 5 6 6 7 7 8 9 9 11 11 10 10 10 10 10 9 9 8 9 10 11 10 10 10
8 7 10 12 15 17 17 19 20 20 19 16 17 19 19 17 15 14 16 15 15 14 13 13 12 12 12 11 11 11 11 12 16 17 14 12 11 11 11 10 10 10 9 9 10 10 11 10 10 10 9 8 7 8 8 7 8 9 9 8 6 6 6 6 6 7 8 9 10 13 11 9 10 10 9 9 9 9 9 9 10 10 10 10 9
4 5 8 10 12 14 16 17 18 18 17 17 17 18 19 16 14 14 15 15 15 13 13 12 12 12 11 11 11 11 11 12 14 14 13 12 12 11 10 9 9 9 9 9 9 10 10 10 10 10 9 8 7 7 7 7 8 9 9 8 7 7 6 6 6 7 8 10 12 15 11 8 10 10 9 8 8 8 8 8 9 10 10 9 9
6 10 10 10 13 12 14 15 15 15 15 16 16 17 18 15 14 15 15 15 15 14 13 12 12 12 12 12 12 12 11 11 12 12 11 12 12 11 10 10 9 9 9 9 10 10 10 9 9 9 9 9 8 7 7 7 8 8 8 8 8 7 6 6 6 6 9 11 14 15 11 8 9 9 8 6 7 8 7 8 9 9 9 9 8
10 14 12 10 13 11 12 14 13 14 14 15 16 16 15 14 15 15 15 16 16 15 14 12 13 14 13 12 12 11 10 10 11 11 11 11 11 10 9 9 9 9 9 8 9 9 9 9 9 9 9 9 9 9 8 8 7 7 8 8 8 8 7 6 6 6 9 11 13 14 11 9 10 8 9 8 8 8 7 8 9 8 8 7 8
16 11 14 13 15 13 11 13 13 13 14 14 15 15 14 14 14 16 15 15 15 14 14 14 15 16 15 13 11 9 9 10 10 10 10 10 10 9 9 9 8 8 8 8 9 8 8 8 8 8 9 8 9 10 9 8 7 7 8 8 8 8 7 6 6 6 8 10 11 12 11 9 10 9 9 9 9 9 9 8 8 8 7 6 7
26 17 16 17 19 17 13 14 15 14 13 13 14 15 15 13 13 15 15 14 13 12 14 17 18 19 17 15 13 9 9 10 10 10 9 10 11 10 9 9 8 9 10 10 10 9 10 9 9 10 10 9 7 9 10 9 8 7 7 7 7 7 6 6 7 7 7 8 10 12 11 9 9 9 9 10 10 9 9 8 8 8 7 7 7
32 33 26 24 23 21 17 18 18 16 14 13 16 17 18 16 15 16 14 14 13 11 13 17 17 16 16 16 14 11 9 10 11 10 10 10 11 10 9 8 8 8 9 11 10 9 11 11 12 12 12 11 8 8 9 9 8 8 7 7 7 6 6 6 6 6 6 7 9 12 11 9 9 9 8 8 9 9 9 8 8 8 7 8 8
18 30 30 27 23 22 20 20 17 16 15 14 16 18 18 16 17 17 14 15 14 11 12 14 13 10 12 14 14 11 9 9 10 10 10 10 10 9 8 8 7 6 7 8 8 8 10 11 11 12 12 11 8 7 8 9 8 7 7 7 6 6 6 6 5 6 6 7 10 12 11 10 11 9 7 7 7 8 8 8 8 8 7 7 7
8 13 20 22 20 20 19 18 16 16 18 18 16 17 17 12 13 16 13 14 13 9 9 10 11 10 12 13 13 11 9 9 11 10 10 10 10 9 8 7 6 6 6 6 6 7 9 10 11 11 11 9 7 7 6 7 7 6 6 6 6 6 6 6 5 6 6 6 9 12 10 9 10 8 6 6 6 6 7 9 9 8 8 7 7
9 9 13 17 18 18 17 19 19 16 17 19 15 14 17 12 12 15 12 13 12 9 9 10 12 12 13 12 11 10 9 10 11 11 10 9 10 9 8 7 6 6 5 5 5 6 7 8 9 9 9 8 7 7 6 6 6 5 5 5 5 5 6 6 5 6 6 6 7 10 10 9 9 8 5 5 5 5 6 8 8 7 8 8 7
11 10 12 15 17 17 16 19 22 18 15 16 16 15 18 15 13 14 12 12 10 9 10 11 13 13 13 12 10 10 10 10 12 11 9 9 10 9 8 7 6 6 5 5 5 5 6 7 7 7 7 7 7 7 6 6 6 5 4 4 4 4 5 6 6 6 5 5 8 8 9 10 9 8 6 5 5 5 5 6 6 7 7 7 8
11 11 11 13 17 18 15 15 21 21 16 14 14 14 15 13 10 11 13 12 10 9 10 12 15 14 13 12 11 11 10 10 11 11 9 8 8 7 7 7 6 6 5 6 6 5 6 6 7 7 7 7 7 6 6 6 5 5 4 3 3 3 3 4 6 7 5 6 7 6 7 9 10 10 9 8 7 6 5 5 6 6 6 6 8
11 12 13 13 15 20 17 15 18 18 16 15 14 12 12 11 10 11 13 12 9 9 10 11 14 15 13 11 11 11 11 10 10 10 9 8 7 7 7 6 6 6 5 5 6 6 7 7 6 7 7 7 6 6 6 6 6 6 4 3 2 2 3 3 6 8 6 6 6 7 7 8 8 8 9 9 8 8 7 6 6 6 6 6 7
13 13 15 14 14 19 19 15 15 14 13 14 14 13 12 12 12 12 12 11 9 9 9 9 11 13 12 11 11 12 12 11 10 9 9 8 8 7 7 7 7 7 6 6 7 7 7 7 6 6 6 6 6 7 6 6 7 6 4 3 3 2 2 2 6 8 8 6 6 7 7 7 8 7 7 8 8 8 8 8 7 7 7 7 7
14 14 16 16 16 17 17 14 14 13 12 13 14 14 13 13 14 14 13 11 10 10 10 10 10 12 11 11 11 12 12 11 10 10 9 9 8 7 8 8 7 7 7 6 6 6 6 7 6 5 5 5 6 7 7 7 7 6 5 4 3 3 3 2 4 7 8 7 5 6 6 7 8 7 8 8 8 9 9 9 8 6 6 6 6
15 16 16 16 16 15 14 14 16 17 17 18 17 14 14 14 14 13 13 12 11 10 11 11 11 11 12 11 12 12 12 11 11 10 10 9 8 8 8 8 7 7 7 6 6 6 7 7 6 5 4 4 5 6 7 7 8 7 7 5 4 4 4 3 4 6 6 6 5 4 5 7 7 7 8 8 8 8 7 7 8 7 6 5 6
16 17 17 17 16 15 15 17 20 20 18 16 15 15 16 16 14 13 13 12 11 12 12 12 12 12 12 12 12 12 12 11 10 10 9 9 8 8 8 8 8 8 7 7 7 7 7 7 7 6 6 5 5 6 7 8 8 8 8 7 6 6 5 5 6 7 7 6 6 4 5 6 6 7 7 7 6 6 5 5 6 6 7 6 6
16 17 17 17 17 16 17 19 22 19 15 14 15 17 18 17 15 14 13 13 12 13 13 12 12 12 12 12 12 11 11 11 10 9 9 8 8 8 9 9 8 8 8 8 7 7 7 7 7 7 7 7 6 8 9 10 9 8 8 7 7 7 6 5 7 9 9 8 6 5 5 5 6 6 6 6 6 5 5 5 4 4 5 5 5
17 17 17 17 17 17 18 19 20 18 16 16 17 18 18 16 15 14 14 14 13 13 13 12 11 11 11 12 11 11 10 10 10 9 9 8 8 8 8 8 8 8 7 8 8 8 8 8 8 7 8 7 7 8 10 9 7 7 7 7 7 6 5 6 8 9 9 7 5 4 4 5 6 6 6 6 5 5 5 4 4 4 3 4 4
16 17 18 18 19 18 17 17 18 18 18 17 17 17 16 14 13 14 14 13 12 13 12 12 11 11 11 11 10 10 10 10 10 9 9 9 8 8 8 8 8 7 7 8 8 8 8 8 8 8 7 7 6 8 9 6 4 7 7 6 5 5 5 5 7 9 8 6 6 5 5 6 6 6 6 6 5 5 5 5 4 4 4 4 5
17 17 18 19 20 18 17 18 18 18 18 17 16 15 13 12 11 12 14 12 12 12 11 11 10 10 11 10 9 9 10 10 10 10 10 9 9 8 8 8 8 7 7 7 8 9 9 9 9 8 8 7 6 7 7 4 3 5 5 3 4 4 3 4 6 7 5 7 8 6 6 7 7 7 7 7 6 6 5 6 5 4 5 5 5
17 18 18 19 20 18 17 18 18 18 18 16 15 14 13 13 11 13 14 13 13 13 12 12 11 11 10 9 9 9 10 10 10 11 10 9 10 9 8 8 8 8 7 7 7 8 8 9 9 8 8 7 6 7 6 4 4 4 3 1 2 3 3 6 7 5 4 6 7 6 7 9 8 7 7 7 7 6 5 5 5 5 6 6 5
17 18 19 19 20 20 18 18 18 17 17 16 15 14 14 14 14 15 15 15 14 14 13 13 12 11 10 10 10 10 10 10 10 11 10 10 10 9 9 9 8 8 7 6 7 7 8 8 8 8 7 6 6 7 7 6 5 2 1 2 1 1 4 8 6 4 6 8 7 6 9 10 8 7 6 6 6 6 5 5 5 7 8 7 7
16 16 16 18 20 20 19 19 17 16 17 17 16 15 15 15 15 15 15 15 14 13 12 12 12 11 11 11 10 10 11 11 11 11 10 10 10 9 9 9 8 8 8 7 7 8 8 8 7 7 7 6 6 7 8 8 6 5 2 2 3 4 5 5 3 4 5 6 6 8 11 10 8 7 7 7 7 6 6 6 7 8 9 9 10
16 15 14 16 17 17 18 18 17 17 19 19 18 17 16 17 16 15 14 14 13 13 12 11 12 12 11 11 11 11 11 11 11 11 10 10 10 9 9 8 8 8 8 8 7 8 7 7 7 7 5 6 6 6 8 9 7 6 5 2 2 3 4 2 2 4 4 5 6 8 10 9 9 9 8 8 7 7 8 8 9 11 11 11 11
12 11 11 13 14 14 15 15 16 20 21 19 20 18 16 16 14 12 12 12 12 11 11 11 11 12 12 12 11 11 11 10 10 9 9 9 9 9 9 8 8 8 8 7 7 7 7 7 7 7 6 6 6 4 7 9 7 6 7 5 3 4 4 4 4 4 3 5 5 6 9 9 9 8 7 7 6 8 9 8 10 12 12 11 11
7 8 9 9 10 11 12 13 15 18 18 17 18 16 14 14 13 12 11 12 12 12 12 11 11 12 12 12 12 11 11 10 10 9 9 9 8 8 8 8 7 6 6 6 7 7 6 7 7 7 7 7 6 5 5 7 6 6 7 6 6 5 5 6 6 5 4 5 5 7 9 9 9 7 7 8 7 8 8 8 11 12 11 11 11
13 13 10 9 9 10 10 10 11 14 15 14 15 16 15 15 14 13 12 12 14 14 13 13 12 12 13 13 12 11 11 10 10 10 9 8 7 7 6 6 5 4 4 4 6 6 6 7 7 8 8 7 7 6 5 5 5 6 7 6 6 5 5 6 7 7 6 6 7 7 8 9 11 8 6 8 9 9 9 10 12 12 11 12 12
Wind_Direction
150 148 150 160 158 158 158 156 157 155 156 156 159 162 162 161 159 157 157 157 157 157 154 151 148 147 150 150 147 146 146 142 142 139 134 132 130 127 127 126 125 125 124 122 120 119 118 116 112 109 106 103 100 102 104 101 100 103 107 104 100 101 111 106 88 86 90 92 93 93 92 91 90 91 93 93 93 90 86 84 81 78 78 79 78
151 147 150 159 157 157 156 154 154 152 153 154 157 159 161 161 159 158 158 159 159 158 153 151 149 150 151 150 148 146 145 142 140 138 134 132 130 130 132 131 129 129 126 124 124 122 120 116 112 107 103 101 100 102 104 104 104 107 108 108 108 106 109 104 92 90 91 92 93 94 94 94 91 88 90 91 92 89 89 88 83 78 77 80 79
147 146 148 156 157 156 154 153 150 148 149 152 155 157 160 160 160 159 159 160 159 158 154 151 151 152 152 149 147 146 145 141 137 136 135 133 134 135 135 133 132 131 128 127 126 125 121 117 114 107 100 97 98 100 104 110 114 114 116 117 115 112 112 109 100 95 94 92 92 94 93 92 91 88 88 88 87 86 85 85 82 79 80 83 81
144 143 145 154 156 154 153 152 149 148 147 149 152 154 158 159 160 160 160 160 158 157 154 152 151 151 149 147 146 147 145 140 138 139 139 138 138 135 134 135 135 132 130 130 129 127 123 121 117 109 103 98 94 96 99 112 123 121 125 125 120 120 119 116 109 100 96 94 92 94 95 93 90 88 87 86 84 83 81 80 79 79 82 85 83
142 141 144 150 152 154 153 151 149 147 147 147 148 151 155 158 160 160 160 158 156 155 152 151 150 148 146 146 147 147 146 143 143 144 142 139 137 138 139 138 135 133 133 133 130 128 125 124 120 111 107 103 97 95 93 105 121 124 127 128 127 127 125 122 114 101 94 93 95 97 98 95 91 87 85 85 83 82 81 80 78 75 74 77 80
142 140 143 147 149 154 154 152 150 148 148 148 148 150 153 156 158 158 158 155 154 153 151 151 149 147 146 148 148 147 148 146 145 142 139 136 138 142 140 136 135 136 135 134 131 130 127 125 121 115 111 109 104 97 93 97 108 121 131 132 131 131 128 124 117 104 91 91 98 98 94 92 90 87 83 84 84 82 81 80 77 75 73 70 71
142 140 143 147 149 153 154 153 152 150 149 149 149 150 152 155 157 157 155 153 152 151 151 152 148 147 148 149 147 147 146 145 143 138 137 139 141 141 138 136 138 138 137 136 135 133 129 125 122 117 113 112 110 102 97 97 102 117 133 138 137 135 131 126 121 107 89 90 97 96 94 90 87 86 85 84 82 75 72 74 76 78 78 71 66
143 141 144 146 150 156 155 153 153 151 149 149 151 151 152 154 155 155 152 151 153 152 152 153 149 149 151 150 148 146 144 144 141 138 142 145 142 141 140 139 140 139 140 140 137 134 131 127 124 120 116 117 116 111 105 101 102 112 132 144 145 140 135 131 121 100 84 87 90 92 95 92 93 90 85 83 78 69 59 56 68 76 77 74 70
144 141 144 145 150 158 156 156 155 152 151 151 152 153 153 154 153 152 151 151 153 154 154 155 152 153 153 150 149 146 144 143 142 142 144 144 143 143 140 139 141 141 143 142 137 135 133 129 127 124 123 123 121 118 112 108 106 108 124 144 152 145 140 137 117 89 81 86 87 88 91 94 98 93 85 84 83 85 80 70 71 75 79 81 79
144 141 144 145 151 158 158 158 155 153 151 150 150 151 152 153 153 152 151 151 153 155 155 156 155 153 151 150 151 149 145 141 142 145 144 144 143 142 142 142 143 143 144 141 139 137 134 132 129 128 130 128 123 120 116 113 110 108 114 134 152 148 142 133 103 80 82 85 86 86 88 90 91 91 90 86 85 99 103 90 85 80 79 80 78
143 142 144 147 154 158 158 157 156 154 151 150 150 148 149 150 150 150 151 151 153 154 154 155 153 149 150 155 155 150 144 141 143 146 147 146 144 144 145 145 145 145 144 142 141 139 136 136 135 137 137 129 123 120 121 119 115 114 114 124 142 146 140 118 87 81 84 85 90 89 89 86 86 92 90 83 82 89 91 83 83 82 81 80 78
144 143 145 150 157 158 157 156 155 153 149 149 148 149 151 149 148 148 149 150 150 150 150 150 150 150 154 157 153 146 143 142 143 146 148 148 147 147 146 146 147 144 145 146 143 141 142 142 143 145 137 126 123 121 125 126 122 119 118 122 130 138 132 102 83 91 87 88 89 83 83 83 88 92 88 84 83 81 81 80 82 85 84 82 78
148 146 147 150 156 158 156 155 152 149 147 147 146 149 152 149 148 148 148 148 148 148 149 150 153 156 156 154 147 143 143 144 144 145 148 148 148 148 148 149 148 145 148 150 146 147 149 148 148 144 133 124 120 121 127 128 126 122 121 120 124 132 120 95 93 98 89 91 84 78 79 82 90 89 85 83 83 81 82 83 85 87 85 83 81
150 148 148 149 154 158 157 155 152 149 147 147 147 149 151 149 148 149 148 148 150 151 153 154 157 157 152 150 144 143 147 146 145 146 149 146 146 150 150 151 150 149 152 154 151 151 149 150 150 142 132 123 118 124 129 128 125 122 121 118 122 123 106 89 98 98 91 90 81 81 82 86 93 89 85 83 82 83 83 84 86 88 86 85 85
152 150 148 148 153 158 158 155 153 150 147 147 147 148 148 147 146 147 147 150 152 153 154 154 154 153 149 148 144 145 149 148 147 147 147 144 145 151 152 153 153 152 153 154 151 152 154 155 152 141 130 123 122 130 134 129 123 120 117 116 119 115 101 91 97 96 92 89 83 85 86 90 95 91 87 85 83 84 84 85 86 87 86 84 86
153 149 147 149 153 156 158 157 154 151 148 146 146 145 144 143 143 145 149 153 154 152 152 151 151 151 150 149 147 149 151 150 149 147 146 145 146 150 155 157 155 155 154 153 153 156 161 159 150 138 133 128 125 133 139 132 122 117 113 112 112 110 106 99 96 96 92 88 86 89 90 93 96 93 90 89 86 86 88 86 86 87 85 83 82
153 150 149 151 155 156 157 158 155 151 148 147 146 144 140 140 142 145 149 154 157 154 152 151 152 153 153 153 151 152 152 152 151 149 147 146 147 149 156 160 158 159 156 155 158 160 162 159 149 143 141 134 128 135 142 137 127 117 111 108 104 106 104 97 90 92 91 88 87 89 94 99 98 94 91 90 88 87 89 87 85 88 88 85 82
155 155 153 153 155 156 156 157 154 150 147 147 145 142 139 140 144 146 148 153 159 159 156 155 157 157 158 157 155 153 152 152 150 148 149 148 148 150 155 158 160 166 163 159 162 162 162 159 154 150 146 139 132 135 142 141 132 121 114 107 102 102 95 88 87 89 90 86 86 90 97 102 100 95 94 93 92 90 88 85 84 86 88 88 86
161 159 156 156 156 155 154 153 151 148 146 145 144 141 140 143 147 149 150 154 158 160 159 158 160 160 161 158 156 156 152 150 149 149 151 152 152 151 152 153 157 164 169 169 169 167 164 160 157 154 147 144 139 134 141 143 138 130 119 110 106 93 79 78 87 88 86 83 86 95 102 107 102 98 99 96 93 91 90 89 87 85 85 86 88
164 161 159 157 156 156 152 151 151 148 146 144 145 144 144 146 148 150 151 153 155 158 160 162 162 160 161 158 157 157 154 153 152 152 151 150 151 151 151 151 151 155 165 173 174 170 166 161 157 155 149 147 145 138 139 144 145 139 127 119 104 82 69 81 89 83 83 84 90 101 109 111 106 102 101 98 95 92 92 92 90 89 88 86 87
168 165 163 159 156 155 153 152 149 146 147 146 145 148 148 146 147 149 150 153 153 154 158 161 160 160 160 157 156 153 153 152 149 150 149 144 145 150 153 151 149 152 158 166 171 171 168 163 159 157 152 149 147 144 140 145 150 146 141 122 95 82 85 93 89 86 88 88 94 104 109 109 106 104 101 100 98 96 97 99 96 93 90 87 88
171 173 168 163 157 153 152 150 146 145 148 147 146 149 146 143 146 148 148 152 154 154 157 156 155 158 157 156 153 149 149 147 144 147 147 142 142 149 154 153 154 155 155 159 166 170 170 167 164 162 160 155 151 150 147 150 156 155 148 120 97 104 106 99 94 93 92 91 98 109 110 108 107 105 101 101 101 100 102 105 101 96 95 92 90
178 183 174 164 155 148 149 147 146 148 147 148 149 146 143 142 144 148 148 152 156 155 156 154 158 159 156 157 153 149 150 146 146 146 143 144 150 158 159 159 162 160 155 156 161 167 171 171 171 169 167 162 157 159 154 156 166 162 152 127 121 138 116 108 103 98 97 94 107 119 115 110 109 108 106 106 104 101 96 100 102 98 96 94 92
176 174 162 162 156 146 147 147 147 148 148 150 148 146 144 144 145 150 152 153 155 155 157 157 163 164 157 157 152 150 150 144 145 143 140 144 156 165 166 165 167 166 157 154 159 162 166 169 173 171 170 170 170 171 162 164 169 165 164 152 151 153 128 118 110 106 102 101 117 121 116 108 105 107 110 111 106 103 101 103 105 101 99 96 94
104 113 138 154 158 151 149 147 148 150 152 152 149 147 146 146 150 154 153 154 155 155 159 159 162 162 157 158 153 150 147 143 143 142 142 145 150 158 163 162 163 168 162 163 166 162 161 165 169 172 176 182 181 180 175 174 171 167 173 166 159 154 139 126 120 116 108 111 120 119 120 116 107 106 110 117 113 109 109 108 106 104 104 99 94
121 143 148 148 154 159 154 149 153 155 155 154 152 151 150 153 155 155 153 154 157 157 157 159 160 157 156 156 152 150 147 145 146 144 147 148 149 154 157 159 162 166 165 170 172 167 169 171 172 176 181 186 181 182 187 184 178 176 175 168 161 154 145 132 126 123 115 118 120 122 132 126 114 104 94 103 114 112 106 102 104 104 102 100 99
161 155 153 153 155 166 162 154 157 158 157 154 153 152 151 153 153 155 157 157 160 160 157 158 161 158 155 155 152 150 148 147 147 146 148 149 151 152 154 156 158 158 157 161 163 163 170 173 174 174 177 184 184 183 189 188 184 185 178 169 165 157 150 141 138 131 120 122 123 127 133 123 117 103 81 86 105 111 106 100 102 100 96 99 104
148 166 166 168 169 172 167 160 164 164 161 155 152 151 150 151 157 160 159 161 163 162 162 163 164 161 156 152 151 150 150 147 145 145 145 144 146 145 147 149 148 149 148 149 152 156 158 163 167 166 168 175 183 185 187 188 185 187 182 172 168 162 156 147 142 132 122 129 133 129 122 116 120 106 84 85 94 105 109 108 109 109 106 101 104
147 179 184 179 180 176 171 171 173 172 166 156 149 151 158 160 158 160 163 166 165 165 169 169 168 163 158 155 151 146 147 147 146 145 143 142 143 143 143 141 140 141 145 146 145 149 151 152 156 158 158 157 176 189 185 183 183 186 185 176 172 165 158 150 140 132 127 138 146 133 114 109 119 109 89 84 86 98 110 111 110 112 106 94 89
164 178 183 183 182 175 177 180 177 173 167 157 154 160 169 168 158 158 166 169 169 172 172 172 170 159 154 158 155 146 142 147 149 147 145 144 145 144 140 137 137 136 145 153 149 146 149 150 150 153 153 153 171 191 181 177 182 187 186 180 176 170 163 155 145 143 142 152 152 133 118 110 105 98 95 95 88 92 103 108 108 106 95 86 83
167 175 177 177 172 172 179 179 171 165 162 155 160 174 173 162 158 158 167 176 175 176 172 170 167 153 152 160 159 152 145 151 154 149 147 146 146 144 139 139 139 134 142 158 161 155 155 154 151 150 151 153 167 185 175 170 179 185 184 180 176 174 169 161 158 160 162 169 154 135 131 121 103 90 90 101 102 96 99 104 106 105 99 97 94
128 163 172 170 165 171 178 173 165 160 166 166 165 177 175 161 160 160 168 182 179 177 174 167 166 162 161 163 160 155 152 157 156 151 150 148 147 144 142 144 142 142 139 146 159 161 161 160 156 155 153 155 165 169 163 163 169 174 175 176 179 179 170 169 173 167 172 179 151 132 135 128 109 97 82 81 97 105 107 104 100 103 106 106 100
130 146 169 172 169 171 173 173 171 159 162 170 163 170 181 180 169 163 170 180 180 181 181 177 175 171 167 162 157 156 156 160 158 153 152 150 149 146 148 151 149 154 149 142 153 158 161 161 160 160 159 165 169 161 154 152 151 150 153 160 174 178 172 182 178 168 179 173 133 116 126 135 120 108 92 74 81 103 121 113 104 108 107 102 98
146 158 172 174 173 169 166 172 176 169 158 162 160 169 187 188 170 167 175 178 181 185 187 187 178 172 168 160 156 160 159 160 159 154 152 151 151 152 156 159 157 160 158 152 157 159 160 161 163 168 170 172 165 157 150 141 136 135 134 139 152 160 174 189 171 160 176 144 113 111 126 140 140 136 127 106 92 99 126 133 125 121 114 104 95
146 161 171 177 178 168 157 157 167 171 171 168 160 166 186 186 169 174 180 177 181 187 195 193 180 171 165 159 160 164 161 161 161 156 154 153 153 158 163 164 160 161 162 162 163 162 160 160 166 172 173 170 158 146 138 128 124 120 116 121 136 149 167 186 164 151 152 125 113 124 137 141 146 150 143 128 114 106 120 145 145 132 124 116 101
145 151 158 171 178 175 170 156 155 164 171 173 165 166 185 185 175 182 182 177 178 187 194 188 177 166 160 162 166 164 164 164 164 160 158 160 159 159 162 165 165 165 170 171 168 166 164 164 169 173 170 168 156 141 130 122 115 111 113 119 128 155 166 171 154 144 146 141 134 144 150 149 150 152 143 135 126 120 125 135 139 133 118 113 115
148 148 153 158 166 178 183 170 161 160 154 159 166 173 185 182 176 180 183 178 172 181 185 172 165 162 160 165 165 164 165 165 168 166 163 168 166 161 165 169 170 170 173 173 174 173 171 168 169 174 175 170 155 138 130 125 117 113 114 115 119 137 159 152 138 139 147 150 151 157 153 145 149 156 153 148 141 134 135 132 127 118 104 104 121
152 151 152 156 160 170 181 172 165 165 156 162 170 173 180 180 175 178 182 176 169 174 175 168 164 165 166 166 164 167 167 168 174 171 169 172 168 167 170 168 166 166 168 169 172 175 173 168 166 174 184 179 158 144 139 132 123 119 115 116 117 113 117 119 131 144 147 146 157 165 155 147 151 159 162 162 154 144 141 135 128 118 108 103 110
159 156 154 159 163 166 170 161 163 173 174 175 173 169 175 175 171 176 180 174 170 172 173 173 170 170 172 170 168 171 174 176 177 175 173 172 168 169 168 165 164 162 164 166 168 174 174 168 166 170 176 169 149 142 141 134 127 123 114 110 107 101 105 112 127 135 131 138 157 159 152 156 157 156 161 164 152 140 135 132 136 137 128 108 98
167 162 159 160 162 166 163 163 176 181 174 169 166 164 169 170 171 175 178 176 172 174 176 174 172 174 176 174 174 177 179 179 178 176 175 174 173 171 167 168 168 164 163 166 168 170 171 166 164 167 161 151 147 145 141 137 130 121 113 108 99 95 101 110 124 127 120 130 146 140 135 149 157 156 158 162 150 134 124 121 132 135 129 120 107
171 167 164 162 161 165 165 172 185 182 167 166 167 168 170 170 171 176 181 179 172 175 177 176 175 176 177 176 178 180 179 177 178 178 178 179 177 173 171 171 169 166 165 167 168 164 165 160 160 167 164 158 161 159 149 143 140 132 125 117 100 92 95 102 112 116 114 121 141 145 135 142 154 158 155 158 156 147 135 124 124 118 116 117 103
172 171 168 166 164 168 169 174 180 177 174 176 172 173 175 172 171 179 183 175 172 177 177 176 176 175 176 177 179 180 177 175 178 181 183 183 180 177 176 172 170 169 165 164 164 161 163 161 161 170 169 166 170 167 162 162 161 155 146 132 120 110 102 99 96 99 104 112 136 145 130 137 147 147 147 149 152 153 145 130 122 108 97 95 86
174 175 173 170 168 171 174 176 180 179 181 182 177 176 176 172 174 178 174 168 172 177 174 173 173 172 176 178 178 177 175 178 182 184 186 186 184 179 176 174 173 172 168 164 163 164 167 168 169 170 168 168 172 169 176 196 192 166 166 162 155 144 130 116 91 90 108 121 124 126 120 128 137 137 139 140 138 140 139 132 121 109 98 88 82
178 179 177 173 170 172 178 183 183 180 180 182 178 173 169 167 171 171 167 164 166 168 168 169 171 174 177 179 179 177 179 185 187 187 189 188 185 182 178 177 177 177 175 170 169 171 172 176 178 173 170 170 170 170 180 210 215 191 199 182 166 172 149 129 101 92 122 135 120 117 117 117 123 130 133 132 127 123 124 128 124 110 95 85 76
181 183 182 177 171 173 183 189 184 177 176 176 172 167 165 166 167 166 165 164 163 164 168 169 172 177 178 179 181 181 185 189 190 190 188 185 182 182 180 178 179 181 178 175 176 177 177 180 181 176 177 177 169 171 177 190 204 231 282 10 165 201 135 133 131 98 86 113 114 117 120 114 112 120 126 128 127 121 122 128 126 108 93 88 84
182 185 183 180 175 175 184 190 183 175 171 170 169 166 166 169 167 167 169 169 168 169 171 170 171 176 177 179 182 186 189 189 187 187 182 179 179 179 179 177 178 178 177 179 178 178 181 183 180 176 182 183 171 171 176 182 189 206 339 41 348 333 120 148 159 104 80 94 98 96 106 108 108 112 118 124 124 124 127 126 114 103 97 97 96
179 183 180 181 180 177 182 187 182 174 166 164 166 164 170 176 173 173 175 174 172 173 173 170 170 173 174 175 181 185 188 184 179 179 178 175 171 171 174 174 176 178 178 181 180 182 184 182 179 179 182 181 180 180 175 178 183 181 166 82 40 48 116 158 174 134 115 102 95 91 96 101 102 99 99 106 109 109 112 110 105 103 104 105 101
178 179 177 186 187 179 180 183 180 167 156 160 170 173 179 183 180 179 180 178 176 172 169 169 169 169 171 175 178 179 180 178 173 174 176 171 166 168 173 175 178 180 181 183 183 182 180 175 175 180 182 180 192 195 177 184 188 172 175 168 96 97 126 167 187 169 157 130 117 104 97 93 87 81 82 94 99 101 102 102 107 108 107 106 103
174 173 180 191 183 176 178 175 168 155 150 167 183 186 188 185 181 180 179 178 175 167 163 167 167 166 169 173 173 171 171 172 170 171 172 169 165 166 170 174 174 178 183 182 179 178 175 172 171 177 182 184 202 209 181 190 195 167 173 186 175 168 157 157 177 190 173 145 141 125 118 111 92 73 76 93 97 104 107 103 106 108 106 106 105
148 171 204 214 178 172 175 167 159 151 158 184 188 184 187 186 185 184 180 174 168 164 163 166 168 167 169 170 169 169 168 166 164 164 167 166 162 162 166 168 169 176 183 180 177 178 175 173 172 175 183 186 195 207 189 187 191 179 181 182 180 183 170 162 172 180 163 147 150 146 144 137 114 83 71 91 101 107 110 109 109 108 106 108 106
167 171 190 220 195 176 174 168 160 163 184 200 184 176 183 189 191 187 181 172 166 164 164 167 170 169 170 170 168 168 165 161 158 158 162 161 158 161 163 162 166 173 181 186 183 183 181 179 178 177 181 186 186 192 193 189 190 188 188 188 189 191 181 172 169 172 165 153 154 150 146 138 123 106 83 93 106 113 116 117 117 113 108 107 104
Height
775 777 779 781 783 784 786 787 788 789 790 792 793 795 796 798 800 802 803 804 806 808 809 810 811 813 814 815 816 817 818 819 820 821 821 822 823 825 825 826 826 827 827 827 828 828 828 828 828 828 828 828 828 828 828 828 828 828 828 828 829 829 829 829 829 829 829 829 829 829 829 829 829 829 829 829 829 830 830 830 830 830 830 830 830
774 777 780 782 783 785 787 788 790 790 791 793 794 796 797 799 801 803 804 805 807 808 810 811 813 814 815 816 817 818 819 820 821 822 822 823 824 826 827 827 828 828 828 829 829 829 829 829 830 829 829 829 829 829 829 829 829 829 829 829 829 830 830 831 830 830 830 830 830 830 830 831 831 831 830 830 831 831 831 831 831 831 831 831 832
775 779 781 783 785 786 788 789 791 791 793 794 795 797 798 800 801 803 804 806 807 809 810 812 814 815 816 817 818 819 820 821 822 822 823 824 825 827 827 828 829 829 830 830 830 830 831 831 831 831 831 830 830 830 830 830 830 830 830 830 830 831 831 832 832 831 831 831 831 831 831 832 832 832 832 832 832 832 832 832 832 832 833 833 833
777 779 782 784 786 788 789 790 792 792 794 795 796 797 799 800 802 804 805 806 808 810 811 813 814 815 817 818 819 820 821 822 822 823 824 825 826 827 828 829 830 831 831 832 832 832 832 832 832 832 832 832 832 831 831 831 831 831 831 831 831 831 832 832 833 832 832 832 833 833 833 833 833 834 834 834 834 834 834 834 834 834 834 834 834
778 781 783 785 788 789 790 791 792 793 795 796 797 798 799 801 802 804 805 807 809 811 812 814 815 816 818 819 821 822 822 823 823 824 825 825 826 828 829 830 831 832 832 833 833 833 833 833 833 833 833 833 833 833 833 833 833 832 832 833 832 832 832 833 833 833 833 833 834 835 835 835 835 836 836 836 836 836 836 836 835 835 836 836 835
779 782 784 787 789 790 791 792 793 794 795 796 797 798 800 801 803 805 806 808 809 812 813 814 816 818 819 820 822 823 824 824 824 825 825 826 827 828 829 830 832 833 834 834 834 834 834 834 834 834 835 835 835 834 834 834 834 834 834 834 834 834 833 834 834 834 834 834 835 836 837 836 836 837 837 837 837 837 837 837 837 837 837 837 837
781 783 785 788 790 791 792 792 793 795 795 796 798 799 800 802 804 805 807 809 811 812 814 815 816 818 820 821 823 824 824 825 825 825 826 827 828 829 829 831 832 833 834 835 835 835 835 835 835 835 836 836 836 836 836 836 835 835 835 835 835 835 835 835 835 835 835 836 837 837 838 838 838 838 839 839 839 839 839 839 839 839 839 839 839
782 784 786 788 791 791 792 793 794 795 796 797 798 799 801 802 804 806 808 809 811 813 815 816 817 819 821 822 823 825 825 825 826 826 827 828 829 829 830 831 832 834 835 835 835 836 836 836 836 837 837 837 838 837 837 837 837 836 836 836 836 836 836 836 836 836 836 837 838 838 839 839 839 840 840 840 840 840 840 840 840 840 840 840 840
783 785 787 789 791 791 792 793 794 795 796 797 798 800 801 803 805 807 808 810 812 814 816 817 818 820 821 823 824 825 826 826 827 827 828 829 830 830 831 832 833 834 835 836 836 836 837 837 837 838 838 838 838 838 838 838 838 838 838 838 837 837 837 837 837 837 838 839 839 840 840 840 841 841 841 841 842 842 842 842 841 841 842 842 842
784 786 788 790 791 792 793 794 795 796 797 798 799 801 802 804 806 807 809 810 812 815 816 818 819 820 822 823 824 825 826 827 828 828 829 830 831 831 832 833 834 835 835 836 836 837 837 838 838 838 839 839 839 839 839 839 839 839 839 839 839 838 838 839 839 839 840 841 841 841 841 841 842 842 842 842 843 842 843 843 843 843 843 843 843
784 786 788 790 791 792 793 794 795 796 797 799 800 802 803 805 807 808 809 811 813 815 817 818 819 821 822 823 824 825 826 827 828 829 830 830 831 833 833 834 835 835 836 837 837 838 838 839 839 839 839 839 840 840 840 840 840 840 840 840 840 840 840 840 840 841 842 842 843 843 843 843 843 844 844 844 844 844 844 844 844 845 845 845 845
785 787 788 790 791 792 794 795 796 797 798 799 801 803 804 806 808 809 810 812 814 816 818 819 820 821 823 824 825 826 827 828 829 829 830 831 832 833 834 835 836 836 837 837 838 838 839 839 839 840 840 840 841 841 841 841 841 841 841 842 841 841 842 841 842 844 844 844 845 845 845 845 845 845 845 845 845 845 845 846 846 846 846 846 846
785 787 789 791 792 793 794 795 796 798 799 800 802 803 805 807 809 810 811 813 815 817 818 820 821 822 823 824 826 827 828 828 829 830 830 831 833 834 835 836 836 837 838 838 839 839 839 840 840 841 841 841 841 842 842 842 842 842 842 843 843 843 842 842 843 845 845 846 846 846 846 846 847 847 847 847 846 847 847 847 847 847 848 848 848
785 787 789 791 793 794 795 796 797 799 800 801 802 804 806 808 809 810 812 814 816 818 819 820 822 823 824 825 826 827 828 829 830 830 831 832 833 834 835 836 837 838 838 839 839 840 840 840 841 841 841 842 842 843 843 843 843 843 844 844 844 844 843 844 845 846 846 847 847 848 848 848 848 848 848 848 848 848 848 848 848 849 849 849 849
785 787 789 791 793 795 796 797 798 800 800 801 803 805 807 808 809 811 813 815 816 818 819 821 822 824 824 826 827 828 829 830 830 831 832 832 834 835 836 837 838 838 839 840 840 840 841 841 842 842 842 842 843 843 844 844 844 845 845 845 846 845 844 846 847 847 848 848 849 849 849 849 849 849 849 849 849 849 849 849 850 850 850 851 850
785 787 789 791 793 795 797 799 799 800 801 802 804 806 807 808 810 812 814 815 817 819 820 822 823 824 825 826 827 828 830 830 831 832 832 833 834 835 836 837 838 839 840 840 841 841 841 842 842 843 843 843 844 844 845 845 845 846 846 847 847 846 845 847 849 848 849 849 850 850 850 851 851 850 850 850 850 850 851 851 851 851 851 852 852
785 787 788 790 793 795 797 799 800 801 802 804 806 807 808 809 811 813 815 816 818 819 821 823 824 825 826 827 828 829 830 831 832 833 833 834 835 836 837 838 839 840 840 841 841 842 842 843 843 843 844 844 845 845 845 846 846 847 847 848 848 848 847 847 850 850 850 851 851 852 852 852 852 852 851 851 852 852 852 852 852 853 853 853 853
785 786 788 790 792 794 797 799 801 803 804 806 807 808 809 810 812 814 816 817 819 821 822 824 825 826 827 828 829 830 830 832 833 834 834 835 836 837 838 839 839 840 841 842 842 843 843 844 844 844 845 845 845 846 846 847 847 848 848 849 849 849 848 849 851 851 851 852 852 852 852 853 853 853 853 853 853 853 853 853 854 854 854 854 854
786 786 788 790 792 795 796 799 801 803 805 807 808 809 810 812 814 815 817 819 820 822 823 825 826 827 827 828 829 830 831 832 834 835 835 835 836 837 838 839 840 841 841 842 843 843 844 845 845 845 846 846 846 847 847 848 848 849 849 850 850 850 850 850 852 852 852 853 853 853 853 853 853 854 854 853 853 853 854 854 855 855 855 855 855
787 788 790 791 793 795 796 799 801 802 804 807 809 810 812 813 815 817 818 820 821 823 825 826 826 827 828 828 829 830 831 833 834 835 836 836 837 838 839 839 840 841 842 842 843 844 845 846 846 847 847 847 847 847 848 848 849 849 850 850 851 851 851 852 853 853 853 854 854 854 854 854 855 855 854 854 854 854 855 855 856 856 856 856 856
789 789 791 792 793 794 795 797 799 802 804 806 809 811 813 814 816 818 819 821 823 824 825 826 827 827 828 829 830 830 832 833 835 836 836 837 837 838 839 840 840 841 842 843 844 845 846 846 847 847 848 849 849 849 849 849 850 850 851 851 851 852 853 854 854 854 854 855 855 855 855 855 856 856 855 855 855 855 856 856 857 857 857 857 857
790 791 791 791 791 792 794 796 798 801 804 806 809 812 814 815 817 819 820 822 823 825 826 827 827 828 828 829 830 831 832 834 835 836 836 837 837 838 839 840 841 841 842 843 844 845 846 847 847 848 849 849 849 850 850 850 850 851 851 852 852 854 855 855 855 855 855 856 856 856 856 857 857 857 856 856 856 856 856 857 857 858 858 858 858
793 793 792 793 793 793 794 796 798 801 804 807 809 812 814 816 818 820 821 823 824 826 827 827 828 828 828 829 830 831 832 834 835 836 836 837 838 839 840 840 841 842 843 843 845 845 846 847 848 849 849 850 850 851 851 851 851 851 852 852 853 855 855 855 855 855 856 856 857 857 857 858 858 858 858 857 857 857 857 858 858 859 859 859 859
797 797 797 799 800 798 798 798 799 802 804 807 809 812 814 816 819 820 822 823 824 826 827 827 828 828 828 829 830 831 832 833 835 835 836 837 838 839 840 841 842 842 843 844 845 846 847 847 848 849 850 851 851 851 852 852 851 851 852 853 854 855 855 856 856 856 856 857 857 857 858 858 858 858 859 858 858 858 858 858 859 860 860 860 860
798 801 801 803 805 803 801 801 801 803 805 807 809 812 815 817 819 821 822 823 824 826 826 827 828 828 829 830 831 831 832 833 834 835 836 838 839 840 841 842 842 843 844 845 846 847 847 848 848 849 850 851 852 852 852 852 852 852 853 853 854 855 856 856 856 856 857 857 857 858 859 859 859 859 859 859 859 859 859 859 860 860 861 861 861
800 800 801 802 805 806 803 803 804 805 806 807 809 812 815 817 819 820 821 822 824 825 826 827 828 828 830 830 831 832 833 834 835 836 837 838 839 840 841 842 843 843 844 846 846 847 848 848 849 849 850 851 851 852 852 852 852 853 853 854 855 855 856 856 856 857 857 858 857 858 859 859 859 860 860 859 860 860 860 860 861 861 862 862 862
802 800 800 802 803 805 805 804 805 806 807 808 810 812 814 817 818 819 821 822 823 824 825 827 827 828 829 830 831 833 833 834 835 836 838 838 839 840 841 842 842 844 844 845 846 847 848 848 849 849 850 850 851 852 853 853 852 853 854 854 855 855 856 856 857 857 857 858 858 858 859 860 860 861 860 860 860 861 861 861 862 862 863 863 863
797 802 800 802 802 804 805 805 806 807 808 809 811 812 814 816 817 819 821 822 822 823 824 825 826 827 829 830 831 833 834 835 835 837 838 839 840 840 841 842 842 843 844 845 846 847 847 848 849 849 850 850 851 852 852 853 853 853 854 854 855 855 856 856 857 857 857 858 858 858 859 860 861 861 861 861 861 861 862 863 863 863 864 864 864
787 799 800 800 801 802 803 804 805 806 808 810 811 813 814 816 817 819 821 822 822 823 824 825 826 827 828 830 831 833 834 835 836 837 838 839 839 840 841 841 842 843 843 844 845 846 847 848 849 849 849 850 851 852 852 852 853 854 854 855 855 855 856 856 857 857 857 858 858 858 859 860 861 862 862 862 863 863 863 864 864 864 864 864 864
776 784 791 795 798 799 801 801 803 805 808 810 812 812 813 815 816 818 820 821 822 823 825 826 827 828 828 829 831 833 834 836 836 837 838 839 839 841 841 842 842 843 844 844 845 846 847 848 849 849 849 849 851 852 852 852 853 853 854 854 855 855 856 856 857 857 857 857 857 858 860 861 862 863 863 864 864 864 865 865 865 865 865 865 865
778 779 783 789 794 797 798 800 803 805 807 811 813 813 813 816 817 818 820 821 822 823 824 826 827 828 828 829 831 833 835 836 837 838 838 839 840 841 842 842 843 843 844 845 845 846 847 848 849 849 849 849 851 852 852 852 852 853 853 854 854 855 855 856 856 856 856 856 856 858 860 861 862 863 864 864 865 865 866 866 866 865 865 865 866
786 787 788 790 793 795 797 800 804 804 806 809 813 815 815 816 818 818 820 820 821 822 824 825 826 827 828 829 831 833 835 836 837 838 838 840 840 841 842 843 844 844 844 845 846 846 847 848 848 849 849 850 851 852 852 852 852 853 853 854 854 854 855 855 855 855 855 855 854 857 859 861 862 863 864 865 865 866 866 866 866 866 866 866 867
787 791 793 794 795 796 798 800 802 804 806 809 812 816 816 816 817 818 820 821 822 822 823 825 826 827 828 830 832 833 835 836 837 837 839 840 841 842 843 843 844 844 844 845 846 847 847 848 849 849 850 851 851 852 852 852 852 853 853 854 854 853 854 854 854 855 855 855 855 857 859 861 862 863 864 865 865 866 866 867 867 867 867 867 867
789 791 793 795 796 798 800 801 802 804 807 809 812 815 815 816 818 818 820 821 822 823 823 825 827 828 829 830 832 834 835 836 836 837 839 840 841 842 843 843 844 844 845 845 846 847 848 848 849 850 850 851 851 852 852 852 853 853 853 853 854 854 854 854 854 855 855 855 856 857 859 861 862 863 863 864 865 865 866 867 867 868 868 868 868
789 791 793 795 797 798 800 801 802 805 807 810 813 814 815 817 819 819 820 821 822 823 824 825 827 828 829 830 832 834 835 836 836 837 839 840 841 842 842 843 844 844 845 846 846 847 848 849 849 850 851 851 851 852 852 852 853 853 853 853 853 854 854 854 854 855 855 855 857 857 858 859 860 861 862 863 864 865 866 867 868 868 868 869 868
788 791 793 794 796 797 799 801 803 805 808 812 814 816 817 819 820 820 820 821 822 823 824 825 826 828 829 831 832 834 835 836 836 837 838 840 841 842 842 843 843 844 845 845 846 847 848 849 849 850 850 851 851 851 852 852 853 853 853 853 854 854 854 855 855 856 856 856 857 857 858 859 859 860 862 863 864 865 866 867 868 869 869 869 869
788 790 791 794 795 797 799 801 803 806 810 813 815 816 819 820 820 821 821 821 822 823 824 825 826 827 829 831 832 833 834 836 836 837 838 840 840 842 842 842 843 844 844 845 846 847 848 848 849 850 850 851 851 851 852 852 853 853 854 854 854 854 855 855 856 857 858 857 858 858 859 860 861 861 862 863 864 865 866 867 868 869 869 869 869
788 789 791 793 794 797 799 801 804 807 810 812 814 815 819 821 820 821 821 821 822 823 824 825 826 828 829 831 833 834 835 836 837 837 838 839 840 841 841 842 843 843 844 845 846 847 848 848 849 850 850 850 850 851 852 852 853 853 854 855 855 855 855 855 856 857 858 859 858 859 860 861 862 863 863 864 865 866 866 867 869 870 870 870 870
787 789 790 792 794 796 799 801 803 804 805 807 810 813 816 819 820 820 821 820 821 823 824 826 827 828 830 831 833 834 835 836 837 837 838 839 840 841 841 841 842 843 844 845 846 847 847 848 849 850 850 850 851 851 852 852 853 854 854 855 855 855 855 856 856 856 857 858 859 859 860 861 862 863 864 865 866 866 866 867 869 870 870 870 869
787 788 790 792 793 796 798 800 800 802 804 807 809 812 815 818 819 819 819 820 822 823 824 826 827 828 830 831 833 834 835 836 836 837 838 838 839 840 841 841 842 843 844 845 846 847 847 848 849 850 850 851 851 851 852 852 853 854 855 855 855 856 856 856 856 857 858 858 859 860 861 861 862 863 864 865 866 866 867 868 869 868 869 869 869
786 787 789 791 793 795 797 798 799 803 806 808 809 811 814 816 817 818 818 819 821 823 824 825 827 828 830 831 832 833 834 835 836 836 837 838 839 840 840 841 842 843 844 845 846 847 847 848 849 850 851 851 851 851 852 852 853 854 854 855 856 856 856 856 856 857 858 858 859 860 861 862 862 863 864 865 866 866 867 869 869 868 868 868 868
786 787 788 790 793 794 796 797 800 803 805 807 808 810 812 813 815 816 817 818 820 822 823 825 826 828 829 831 832 833 834 835 835 836 837 838 838 839 840 841 842 843 844 845 845 846 847 848 849 850 850 851 851 851 852 852 852 852 852 854 855 856 856 857 857 858 858 859 860 860 861 861 862 863 864 865 866 866 867 868 869 869 868 868 869
786 787 788 790 792 794 796 797 800 802 804 806 807 809 811 812 814 815 816 818 820 821 823 824 826 827 829 830 831 832 833 834 835 836 837 837 838 839 840 841 842 842 843 844 845 846 847 848 849 849 850 851 851 852 852 851 850 850 851 851 851 853 856 857 858 859 859 859 860 860 861 861 862 863 864 865 866 866 867 868 869 869 869 869 870
785 786 787 789 790 793 795 796 799 801 802 805 807 808 810 812 814 815 816 818 819 821 822 824 826 827 829 830 831 832 833 834 835 836 836 837 838 839 840 841 841 842 843 844 844 845 846 847 848 849 850 850 851 851 852 851 851 850 850 848 847 850 854 856 858 860 860 859 860 861 861 862 862 863 864 865 866 867 868 868 869 869 869 870 871
784 784 785 787 789 791 793 795 797 799 801 804 807 809 811 813 814 815 816 817 819 820 822 824 825 827 828 829 831 832 833 834 835 835 836 837 838 838 839 840 841 842 843 843 844 845 846 847 848 849 850 850 850 851 852 852 852 852 851 849 849 849 850 853 857 859 860 859 861 861 861 862 863 864 865 865 866 867 868 869 869 870 870 871 872
782 782 784 785 787 789 792 794 796 799 801 804 807 810 811 813 813 814 815 816 817 819 821 822 824 826 827 829 830 831 833 833 834 835 835 836 837 838 839 840 841 842 842 843 844 845 846 846 847 849 849 850 850 851 851 852 852 853 852 851 852 849 848 851 854 858 861 861 861 862 862 863 864 865 866 866 867 868 869 869 870 870 871 872 873
781 782 783 784 785 788 790 793 796 798 801 804 808 810 811 812 813 813 814 815 817 818 820 822 824 825 827 828 829 831 831 832 833 834 835 835 836 837 838 839 840 841 842 843 844 844 845 846 847 848 849 849 850 850 850 851 852 853 853 852 852 850 850 851 851 855 860 862 863 863 864 865 866 866 867 868 868 869 870 870 871 872 873 874 874
780 781 783 783 785 787 789 792 795 797 800 804 808 809 810 811 813 813 814 815 816 818 820 822 824 825 826 827 829 830 830 831 832 833 834 835 835 837 838 839 840 840 841 842 843 844 845 846 847 848 848 849 849 849 850 851 851 852 853 853 852 852 852 852 852 852 855 859 863 864 865 867 867 868 869 869 869 870 871 871 872 873 874 875 876
782 783 784 785 786 788 790 793 794 796 800 803 805 807 810 812 813 814 815 816 817 819 820 822 823 824 826 827 828 829 830 831 832 832 833 834 835 836 837 839 839 840 841 842 843 844 845 846 847 848 848 849 849 849 850 851 850 851 852 853 853 853 853 853 854 853 852 856 862 864 865 867 868 869 870 870 871 871 872 873 873 874 875 876 877
786 788 788 788 789 790 792 794 795 798 801 801 803 807 811 813 814 814 814 815 817 818 820 822 823 824 825 827 827 828 829 830 831 832 833 834 835 837 838 839 839 840 841 842 843 844 844 846 847 847 848 848 849 849 849 850 850 851 852 852 853 852 853 853 854 854 853 856 860 862 864 866 868 871 872 872 872 873 873 874 875 876 877 878 879
781 784 787 790 791 792 795 796 798 801 801 802 805 807 809 812 813 813 814 815 816 818 819 821 822 823 825 826 827 828 829 830 831 832 834 835 836 837 838 839 840 840 841 842 843 843 844 845 846 847 847 848 848 849 849 849 850 851 851 852 852 852 852 852 853 854 855 856 858 861 864 866 868 871 873 873 874 874 875 876 877 878 879 879 880